Location: Angwan Shehu
(11.2514°N, 7.4613°E)
Time: 14:08:09
(UTC+00:00)

ATLAS 5 CENTAUR R/B - Pass Details

Date: 14 November 2019
Orbit: 563 x 1096 km, 63.3° (Epoch: 09 December)

Event Time Altitude Azimuth Distance (km) Brightness Sun altitude
Rises 19:44:53 0° 321° (NW) 3,690 5.8 -39.0°
Reaches altitude 10° 19:47:35 10° 313° (NW) 2,803 5.2 -39.6°
Enters shadow 19:52:56 37° 263° (W) 1,595 3.9 -40.9°
